Latest Coastal Weather Observations for Swanbourne

IDW60701

Issued at 10:22 am WST Tuesday 25 June 2024 (issued every 10 minutes, with the page automatically refreshed every 10 minutes)

About coastal observations | Map of coastal stations | Coastal observations for WA | Marine services | Other Formats
Station Details ID: 009215 Name: SWANBOURNE Lat: -31.96 Lon: 115.76 Height: 40.96 m
Data from the previous 72 hours. | See also: Recent months at Swanbourne
Date/Time
WST
Wind Sea
Height
m
Swell Vis
km
Cloud Weather Temp
°C
Press
MSL
hPa
Rain since
9am
mm
Dir  Spd
kts
Gust
kts
Height
m
Period
s
Dir
25/10:00am ENE 7 11 - - - - - - - 12.5 - 0.0
25/09:30am ENE 7 11 - - - - - - - 11.1 - 0.0
25/09:00am ENE 6 9 - - - - - - - 9.7 - 0.0
25/08:30am ENE 7 10 - - - - - - - 8.2 - 0.0
25/08:00am ENE 7 11 - - - - - - - 7.0 - 0.0
25/07:30am ENE 7 9 - - - - - - - 6.4 - 0.0
25/07:00am ENE 6 9 - - - - - - - 5.8 - 0.0
25/06:30am ENE 6 7 - - - - - - - 5.8 - 0.0
25/06:00am E 7 8 - - - - - - - 5.9 - 0.0
25/05:30am E 7 8 - - - - - - - 6.0 - 0.0
25/05:00am E 7 8 - - - - - - - 6.3 - 0.0
25/04:30am E 6 8 - - - - - - - 6.6 - 0.0
25/04:00am E 7 8 - - - - - - - 7.2 - 0.0
25/03:30am ESE 7 9 - - - - - - - 7.3 - 0.0
25/03:00am ESE 7 9 - - - - - - - 7.3 - 0.0
25/02:30am E 6 7 - - - - - - - 7.5 - 0.0
25/02:00am ESE 7 8 - - - - - - - 8.0 - 0.0
25/01:30am E 6 7 - - - - - - - 8.3 - 0.0
25/01:00am ESE 6 8 - - - - - - - 8.6 - 0.0
25/12:30am ESE 6 7 - - - - - - - 9.3 - 0.0
25/12:00am ESE 6 7 - - - - - - - 9.4 - 0.0
 
Date/Time
WST
Wind Sea
Height
m
Swell Vis
km
Cloud Weather Temp
°C
Press
MSL
hPa
Rain since
9am
mm
Dir  Spd
kts
Gust
kts
Height
m
Period
s
Dir
24/11:30pm E 5 5 - - - - - - - 9.7 - 0.0
24/11:00pm E 6 7 - - - - - - - 10.1 - 0.0
24/10:30pm E 5 7 - - - - - - - 10.1 - 0.0
24/10:00pm E 5 6 - - - - - - - 10.4 - 0.0
24/09:30pm ESE 5 6 - - - - - - - 10.6 - 0.0
24/09:00pm ESE 5 6 - - - - - - - 10.6 - 0.0
24/08:30pm ESE 4 5 - - - - - - - 11.2 - 0.0
24/08:00pm SE 5 6 - - - - - - - 11.6 - 0.0
24/07:30pm SE 4 5 - - - - - - - 12.3 - 0.0
24/07:00pm SSE 4 6 - - - - - - - 12.6 - 0.0
24/06:30pm SSE 4 5 - - - - - - - 12.8 - 0.0
24/06:00pm SSE 4 5 - - - - - - - 13.2 - 0.0
24/05:30pm S 5 7 - - - - - - - 14.1 - 0.0
24/05:00pm SSW 6 10 - - - - - - - 15.0 - 0.0
24/04:30pm SSW 7 10 - - - - - - - 15.8 - 0.0
24/04:00pm SSW 7 10 - - - - - - - 15.9 - 0.0
24/03:30pm SSW 7 10 - - - - - - - 16.2 - 0.0
24/03:00pm SSW 7 12 - - - - - - - 16.0 - 0.0
24/02:30pm WSW 6 8 - - - - - - - 16.9 - 0.0
24/02:00pm SW 6 8 - - - - - - - 16.6 - 0.0
24/01:30pm SE 5 9 - - - - - - - 17.0 - 0.0
24/01:00pm SE 4 8 - - - - - - - 16.9 - 0.0
24/12:30pm SE 3 7 - - - - - - - 16.6 - 0.0
24/12:00pm ESE 5 8 - - - - - - - 16.0 - 0.0
24/11:30am ESE 4 9 - - - - - - - 15.7 - 0.0
24/11:00am SSE 5 8 - - - - - - - 15.1 - 0.0
24/10:30am ESE 3 5 - - - - - - - 14.4 - 0.0
24/10:00am ESE 3 5 - - - - - - - 13.7 - 0.0
24/09:30am ENE 3 5 - - - - - - - 12.6 - 0.0
24/09:00am E 4 5 - - - - - - - 10.8 - 0.0
24/08:30am ENE 5 6 - - - - - - - 9.0 - 0.0
24/08:00am E 6 7 - - - - - - - 7.5 - 0.0
24/07:30am E 6 7 - - - - - - - 7.0 - 0.0
24/07:00am E 5 6 - - - - - - - 7.4 - 0.0
24/06:30am ESE 6 7 - - - - - - - 7.5 - 0.0
24/06:00am E 6 7 - - - - - - - 7.9 - 0.0
24/05:30am E 6 7 - - - - - - - 8.0 - 0.0
24/05:00am E 6 7 - - - - - - - 7.8 - 0.0
24/04:30am ESE 5 7 - - - - - - - 8.1 - 0.0
24/04:00am ESE 5 6 - - - - - - - 8.3 - 0.0
24/03:30am E 5 6 - - - - - - - 8.4 - 0.0
24/03:00am E 5 6 - - - - - - - 8.5 - 0.0
24/02:30am E 5 5 - - - - - - - 8.9 - 0.0
24/02:00am ESE 5 6 - - - - - - - 9.1 - 0.0
24/01:30am ESE 5 6 - - - - - - - 9.2 - 0.0
24/01:00am ESE 6 7 - - - - - - - 9.4 - 0.0
24/12:30am ESE 6 7 - - - - - - - 9.8 - 0.0
24/12:00am ESE 5 6 - - - - - - - 10.1 - 0.0
 
Date/Time
WST
Wind Sea
Height
m
Swell Vis
km
Cloud Weather Temp
°C
Press
MSL
hPa
Rain since
9am
mm
Dir  Spd
kts
Gust
kts
Height
m
Period
s
Dir
23/11:30pm ESE 6 6 - - - - - - - 10.2 - 0.0
23/11:00pm ESE 5 6 - - - - - - - 10.6 - 0.0
23/10:30pm ESE 6 7 - - - - - - - 11.1 - 0.0
23/10:00pm ESE 5 7 - - - - - - - 11.7 - 0.0
23/09:30pm SE 5 7 - - - - - - - 11.6 - 0.0
23/09:00pm SE 5 8 - - - - - - - 12.4 - 0.0
23/08:30pm SE 6 10 - - - - - - - 13.1 - 0.0
23/08:00pm SSE 7 10 - - - - - - - 13.4 - 0.0
23/07:30pm SSE 6 12 - - - - - - - 13.4 - 0.0
23/07:00pm SSE 6 9 - - - - - - - 13.3 - 0.0
23/06:30pm SSE 5 7 - - - - - - - 13.4 - 0.0
23/06:00pm SSE 5 6 - - - - - - - 13.5 - 0.0
23/05:30pm S 5 7 - - - - - - - 14.4 - 0.0
23/05:00pm S 6 9 - - - - - - - 15.2 - 0.0
23/04:30pm S 7 11 - - - - - - - 15.9 - 0.0
23/04:00pm SSW 8 11 - - - - - - - 16.4 - 0.0
23/03:30pm SSW 8 14 - - - - - - - 16.6 - 0.0
23/03:00pm S 5 8 - - - - - - - 17.8 - 0.0
23/02:30pm SSW 6 9 - - - - - - - 16.9 - 0.0
23/02:00pm S 6 10 - - - - - - - 16.3 - 0.0
23/01:30pm SSW 5 7 - - - - - - - 16.8 - 0.0
23/01:00pm SSE 5 9 - - - - - - - 16.5 - 0.0
23/12:30pm SSW 6 10 - - - - - - - 15.8 - 0.0
23/12:00pm S 4 7 - - - - - - - 16.0 - 0.0
23/11:30am SSE 5 8 - - - - - - - 15.3 - 0.0
23/11:00am SE 6 9 - - - - - - - 15.1 - 0.0
23/10:30am SSE 4 7 - - - - - - - 15.4 - 0.0
23/10:00am ENE 3 5 - - - - - - - 15.6 - 0.0
23/09:30am ENE 6 7 - - - - - - - 13.5 - 0.0
23/09:00am ENE 5 8 - - - - - - - 12.1 - 0.0
23/08:30am ENE 5 7 - - - - - - - 11.3 - 0.0
23/08:00am ENE 4 5 - - - - - - - 10.8 - 0.0
23/07:30am ENE 5 7 - - - - - - - 10.1 - 0.0
23/07:00am ENE 5 7 - - - - - - - 10.1 - 0.0
23/06:30am ENE 5 7 - - - - - - - 10.2 - 0.0
23/06:00am E 6 7 - - - - - - - 9.6 - 0.0
23/05:30am E 5 7 - - - - - - - 9.6 - 0.0
23/05:00am E 5 6 - - - - - - - 9.1 - 0.0
23/04:30am E 5 6 - - - - - - - 9.9 - 0.0
23/04:00am E 4 5 - - - - - - - 11.0 - 0.0
23/03:30am E 4 5 - - - - - - - 11.2 - 0.0
23/03:00am E 4 5 - - - - - - - 12.0 - 0.0
23/02:30am SE 3 5 - - - - - - - 13.0 - 0.0
23/02:00am ESE 3 5 - - - - - - - 12.6 - 0.0
23/01:30am NE 3 4 - - - - - - - 12.4 - 0.0
23/01:00am ENE 4 5 - - - - - - - 11.8 - 0.0
23/12:30am E 4 9 - - - - - - - 12.6 - 0.0
23/12:00am ENE 4 5 - - - - - - - 12.4 - 0.0
 
Date/Time
WST
Wind Sea
Height
m
Swell Vis
km
Cloud Weather Temp
°C
Press
MSL
hPa
Rain since
9am
mm
Dir  Spd
kts
Gust
kts
Height
m
Period
s
Dir
22/11:30pm E 5 6 - - - - - - - 12.8 - 0.0
22/11:00pm ENE 4 6 - - - - - - - 12.2 - 0.0
22/10:30pm ENE 4 6 - - - - - - - 12.9 - 0.0
22/10:00pm E 5 6 - - - - - - - 13.3 - 0.0
22/09:30pm E 4 5 - - - - - - - 12.6 - 0.0
22/09:00pm E 4 6 - - - - - - - 13.4 - 0.0
22/08:30pm ESE 5 7 - - - - - - - 13.4 - 0.0
22/08:00pm ESE 5 7 - - - - - - - 13.9 - 0.0
22/07:30pm SE 4 6 - - - - - - - 14.8 - 0.0
22/07:00pm SSE 7 11 - - - - - - - 15.4 - 0.0
22/06:30pm SSW 8 14 - - - - - - - 15.3 - 0.0
22/06:00pm SSW 11 17 - - - - - - - 15.6 - 0.0
22/05:30pm SSW 11 19 - - - - - - - 15.9 - 0.0
22/05:00pm SSW 12 18 - - - - - - - 16.4 - 0.0
22/04:30pm SSW 12 18 - - - - - - - 17.0 - 0.0
22/04:00pm SSW 13 17 - - - - - - - 17.0 - 0.0
22/03:30pm SSW 12 17 - - - - - - - 16.5 - 0.0
22/03:00pm SSW 10 18 - - - - - - - 18.0 - 0.0
22/02:30pm SW 12 19 - - - - - - - 17.5 - 0.0
22/02:00pm SW 12 19 - - - - - - - 15.9 - 0.0
22/01:30pm SSW 13 21 - - - - - - - 16.0 - 0.0
22/01:00pm SSW 14 21 - - - - - - - 17.5 - 0.0
22/12:30pm SW 14 21 - - - - - - - 18.6 - 0.0
22/12:02pm SW 16 26 - - - - - - - 18.4 - 0.0
22/12:00pm SW 15 21 - - - - - - - 18.3 - 0.0
22/11:30am SW 14 21 - - - - - - - 18.5 - 0.0
22/11:00am SW 13 20 - - - - - - - 18.4 - 0.0
22/10:30am SW 13 20 - - - - - - - 18.0 - 0.0

Other formats

Comma delimited format used in spreadsheet applications
http://www.bom.gov.au/fwo/IDW60701/IDW60701.94614.axf

JavaScript Object Notation format (JSON) in row-major order
http://www.bom.gov.au/fwo/IDW60701/IDW60701.94614.json

Data quality

Most of these data are generated automatically and are frequently updated. Quality checks on data are not normally performed. It is possible for incorrect values to appear. Refer to information at About Latest Weather Observations and please check the disclaimer before using these data.